| time (UTC) | temp F | wind direction | speed knots | gust knots | rain 1hr in | rain 24hr in | rain mn in | humidity % | barometer mb |
| 20260504211600 | 64 | 360 | 0.0 | 0.0 | 0.00 | 0.00 | 0.00 | 38 | 1006.5 |
| 20260504210059 | 64 | 188 | 0.0 | 0.0 | 0.00 | 0.00 | 0.00 | 38 | 1006.4 |
| 20260504204556 | 64 | 360 | 0.0 | 0.0 | 0.00 | 0.00 | 0.00 | 38 | 1006.3 |
| 20260504203107 | 65 | 360 | 0.0 | 0.0 | 0.00 | 0.00 | 0.00 | 38 | 1006.3 |
| 20260504201555 | 65 | 360 | 0.0 | 0.0 | 0.00 | 0.00 | 0.00 | 40 | 1006.3 |
| 20260504200049 | 65 | 306 | 0.0 | 0.0 | 0.00 | 0.00 | 0.00 | 37 | 1006.5 |
| 20260504194546 | 64 | 360 | 0.0 | 0.0 | 0.00 | 0.00 | 0.00 | 39 | 1006.6 |
| 20260504193044 | 63 | 360 | 0.0 | 0.0 | 0.00 | 0.00 | 0.00 | 40 | 1006.7 |
| 20260504191549 | 64 | 360 | 0.0 | 0.0 | 0.00 | 0.00 | 0.00 | 39 | 1006.7 |
| 20260504190046 | 63 | 360 | 0.0 | 0.0 | 0.00 | 0.00 | 0.00 | 40 | 1006.8 |
| 20260504184541 | 64 | 360 | 0.0 | 0.0 | 0.00 | 0.00 | 0.00 | 41 | 1006.9 |
| 20260504183040 | 63 | 360 | 0.0 | 0.0 | 0.00 | 0.00 | 0.00 | 41 | 1007.1 |
| 20260504181544 | 62 | 360 | 0.0 | 0.0 | 0.00 | 0.00 | 0.00 | 42 | 1007.2 |
| 20260504180038 | 62 | 360 | 0.0 | 0.0 | 0.00 | 0.00 | 0.00 | 41 | 1006.9 |
| 20260504174535 | 63 | 360 | 0.0 | 0.0 | 0.00 | 0.00 | 0.00 | 40 | 1006.9 |
| 20260504173033 | 61 | 360 | 0.0 | 0.0 | 0.00 | 0.00 | 0.00 | 42 | 1006.9 |
| 20260504171532 | 62 | 360 | 0.0 | 0.0 | 0.00 | 0.00 | 0.00 | 40 | 1007.1 |
| 20260504081501 | 43 | 360 | 0.0 | 0.0 | 0.00 | 0.02 | 0.00 | 68 | 1009.6 |
| 20260504044551 | 42 | 360 | 0.0 | 0.0 | 0.00 | 0.03 | 0.00 | 54 | 1009.6 |
| 20260504043043 | 42 | 360 | 0.0 | 0.0 | 0.00 | 0.03 | 0.00 | 55 | 1009.6 |
| 20260504041541 | 42 | 168 | 0.0 | 0.0 | 0.00 | 0.03 | 0.00 | 55 | 1009.4 |
| 20260504040049 | 42 | 360 | 0.0 | 0.0 | 0.00 | 0.03 | 0.00 | 55 | 1009.3 |
| 20260504034534 | 42 | 360 | 0.0 | 0.0 | 0.00 | 0.03 | 0.03 | 55 | 1009.3 |
| 20260504033030 | 42 | 360 | 0.0 | 0.0 | 0.00 | 0.03 | 0.03 | 55 | 1009.2 |
| 20260504031528 | 42 | 360 | 0.0 | 0.0 | 0.00 | 0.03 | 0.03 | 56 | 1009.3 |
| 20260504030023 | 42 | 360 | 0.0 | 0.0 | 0.00 | 0.03 | 0.03 | 56 | 1009.3 |
| 20260504024516 | 42 | 360 | 0.0 | 0.0 | 0.00 | 0.03 | 0.03 | 56 | 1009.4 |
| 20260504023012 | 42 | 300 | 0.0 | 0.0 | 0.00 | 0.03 | 0.03 | 56 | 1009.4 |
| 20260504021511 | 42 | 360 | 0.0 | 0.0 | 0.00 | 0.03 | 0.03 | 56 | 1009.4 |
| 20260504020004 | 43 | 360 | 0.0 | 0.0 | 0.00 | 0.03 | 0.03 | 55 | 1009.4 |
| 20260504014502 | 42 | 360 | 0.0 | 0.0 | 0.00 | 0.03 | 0.03 | 56 | 1009.4 |
| 20260504013101 | 42 | 360 | 0.0 | 0.0 | 0.00 | 0.03 | 0.03 | 57 | 1009.3 |
| 20260504011559 | 42 | 360 | 0.0 | 0.0 | 0.00 | 0.03 | 0.03 | 56 | 1009.3 |
| 20260504004603 | 42 | 360 | 0.0 | 0.0 | 0.00 | 0.04 | 0.03 | 57 | 1009.0 |
| 20260504003105 | 43 | 360 | 0.0 | 0.0 | 0.00 | 0.04 | 0.03 | 56 | 1008.9 |
| 20260504001604 | 43 | 360 | 0.0 | 0.0 | 0.00 | 0.04 | 0.03 | 55 | 1008.6 |
| 20260504000055 | 43 | 304 | 0.0 | 0.0 | 0.00 | 0.04 | 0.03 | 54 | 1008.4 |
| 20260503234545 | 44 | 360 | 0.0 | 0.0 | 0.00 | 0.06 | 0.03 | 53 | 1008.3 |
| 20260503233041 | 44 | 279 | 0.0 | 0.0 | 0.00 | 0.06 | 0.03 | 51 | 1008.1 |
| 20260503231536 | 44 | 360 | 0.0 | 0.0 | 0.00 | 0.06 | 0.03 | 52 | 1008.0 |
| 20260503230036 | 45 | 360 | 0.0 | 0.0 | 0.00 | 0.06 | 0.03 | 51 | 1007.9 |
| 20260503224527 | 46 | 360 | 0.0 | 0.0 | 0.00 | 0.13 | 0.03 | 51 | 1007.9 |
| 20260503223027 | 46 | 360 | 0.0 | 0.0 | 0.00 | 0.13 | 0.03 | 50 | 1007.8 |
| 20260503221527 | 46 | 299 | 0.0 | 0.0 | 0.00 | 0.13 | 0.03 | 51 | 1007.6 |
| 20260503220026 | 46 | 360 | 0.0 | 0.0 | 0.00 | 0.13 | 0.03 | 52 | 1007.6 |
| 20260503214525 | 44 | 302 | 0.0 | 0.0 | 0.00 | 0.14 | 0.03 | 52 | 1007.5 |
| 20260503213025 | 45 | 286 | 0.0 | 0.0 | 0.00 | 0.14 | 0.03 | 53 | 1007.5 |